Wetbulb
58.95 58.93 58.89 58.70 58.64 58.61 58.36 58.05 57.53 57.57 57.48 57.67 57.80 57.83 57.82 57.78 57.68 53.30 46.70 53.15 55.15 64.50 61.51 52.41 51.24 49.68 45.88 42.71 44.49 43.91 38.16 35.03 38.25 42.05 43.33 57.22 56.09 62.18 64.10 61.90 61.38 62.53 61.38 64.34 66.13
58.53 58.55 58.42 58.55 58.39 58.41 58.21 57.77 57.48 57.29 57.20 57.33 57.68 57.37 57.45 58.22 52.62 49.59 57.47 62.32 64.61 65.11 52.92 49.03 46.16 44.87 41.65 40.48 40.77 41.35 35.55 38.13 42.91 44.31 43.61 56.04 56.23 61.12 61.64 60.65 60.13 59.72 65.90 66.68 66.65
58.15 58.15 58.29 58.27 58.27 58.25 57.94 57.75 57.47 57.36 57.21 57.07 56.98 57.16 57.80 57.70 45.88 48.68 66.56 65.12 66.01 65.71 49.67 48.03 46.56 43.58 38.75 39.25 39.54 38.07 37.39 41.12 43.57 44.68 45.96 47.43 56.10 61.69 60.64 58.56 60.72 58.64 61.71 64.53 64.57
58.05 58.07 58.03 57.76 57.70 57.67 57.62 57.38 57.33 57.41 57.01 56.55 56.73 57.45 58.69 54.16 36.64 50.84 67.92 68.42 66.80 59.81 49.28 46.68 42.45 39.72 38.18 38.47 40.11 40.81 41.92 41.76 43.45 44.03 44.14 44.49 58.22 59.48 60.61 60.04 63.18 62.12 61.24 63.79 63.24
57.70 57.79 57.65 57.58 57.44 57.54 57.47 57.27 57.26 57.16 56.50 56.11 56.89 58.12 53.82 46.24 47.26 55.31 67.34 67.44 60.15 51.59 47.87 44.46 40.80 40.36 39.33 38.47 39.47 38.67 41.37 42.33 44.23 43.79 41.36 55.63 58.36 59.52 59.86 62.75 63.74 63.46 61.72 61.55 63.42
57.26 57.15 57.29 57.31 57.35 57.37 57.36 57.10 56.84 56.66 56.20 56.21 57.52 58.34 52.61 43.23 52.84 56.49 58.71 56.79 53.28 49.93 48.10 45.19 43.75 44.15 41.45 41.05 40.54 42.65 41.48 42.54 42.69 42.67 42.87 54.97 58.41 59.87 61.10 63.69 61.47 62.01 60.03 61.66 63.13
57.06 57.04 56.92 57.24 57.18 57.22 57.26 56.83 56.49 56.70 56.63 56.68 57.91 56.98 50.67 46.54 54.29 57.72 57.76 58.61 57.75 53.47 49.30 48.77 47.36 46.38 44.81 42.04 43.10 41.52 39.10 41.08 41.76 41.67 41.44 59.86 56.94 56.43 60.60 63.69 60.05 59.93 60.25 61.29 63.45
56.84 56.79 56.76 56.94 57.04 57.06 57.02 57.00 56.78 56.75 57.29 57.24 58.18 54.26 46.54 55.09 56.30 55.95 54.86 55.55 58.22 56.96 52.48 50.97 50.04 46.71 42.83 43.17 43.00 39.12 37.59 35.23 39.43 43.27 45.97 45.39 38.49 56.57 60.99 61.90 60.56 61.88 61.86 62.62 62.91
56.72 56.45 56.55 56.76 56.80 56.74 56.60 56.19 56.43 57.07 57.42 57.57 53.29 50.18 49.76 59.40 56.86 58.17 55.89 53.37 51.02 53.10 53.80 55.72 46.50 42.52 42.33 37.42 35.36 36.21 34.14 35.79 39.88 43.32 43.39 41.48 40.26 52.39 60.65 59.82 59.48 60.31 60.74 59.99 61.99
56.46 56.25 56.05 56.27 56.26 56.21 55.29 55.51 55.26 54.71 55.95 57.28 55.78 49.21 52.11 53.77 56.65 54.64 52.16 50.78 49.43 50.15 49.18 48.04 42.93 40.25 37.57 36.25 32.17 33.48 34.50 35.80 37.47 41.09 42.83 39.94 41.00 55.66 58.95 57.40 56.88 57.68 57.88 58.98 60.44
56.32 56.23 55.79 55.71 55.89 55.07 50.82 47.56 48.93 46.98 51.99 50.21 50.42 52.03 54.71 58.60 57.74 53.06 53.41 50.27 49.93 47.95 42.48 44.69 41.18 38.37 41.55 39.23 39.01 37.93 36.84 36.14 40.25 44.04 40.49 40.28 40.72 54.68 58.11 57.88 57.00 57.35 57.97 61.00 61.63
55.97 56.09 55.87 55.45 55.25 54.36 48.51 45.92 51.24 51.47 47.23 53.22 53.98 54.13 56.96 57.86 54.25 53.34 53.34 48.58 46.75 42.62 44.50 42.60 39.83 45.32 46.13 46.74 43.79 41.06 38.50 40.35 43.75 46.94 40.83 41.14 46.20 49.74 51.23 52.85 55.55 54.62 55.83 57.89 59.50
55.27 55.08 55.19 55.06 54.46 49.16 46.26 50.51 53.74 51.70 45.11 50.40 53.99 53.89 54.01 56.32 52.99 51.44 52.22 48.51 45.69 43.18 42.42 41.71 45.67 46.10 43.96 42.24 44.26 42.03 41.67 42.52 42.70 46.77 42.16 40.69 41.40 45.77 49.88 51.08 53.15 53.67 54.82 55.58 58.70
54.54 54.70 54.49 54.33 50.76 49.06 47.77 53.21 52.42 52.79 44.14 50.11 51.82 52.97 51.79 51.62 49.97 54.49 52.57 49.63 46.49 44.35 44.07 44.53 46.31 43.17 41.80 40.51 41.78 38.48 43.26 46.15 44.51 41.04 35.19 42.04 31.55 42.07 45.49 45.90 48.92 50.55 52.31 54.52 56.90
54.42 54.50 54.05 53.76 44.03 46.03 50.81 51.64 52.72 53.59 35.84 52.08 49.88 55.01 52.19 50.28 50.85 50.96 53.77 53.18 47.42 46.61 46.37 42.66 40.03 40.89 39.25 40.46 42.04 40.25 43.08 43.56 45.25 39.05 36.02 38.88 33.02 39.82 44.69 43.01 45.33 47.67 50.63 52.50 56.23
54.15 54.31 54.17 50.93 48.09 51.14 53.31 53.56 53.92 43.43 37.04 45.85 48.76 47.51 45.89 46.93 47.63 49.70 48.61 50.10 50.61 46.25 45.85 43.36 44.96 42.28 40.25 43.04 42.88 42.90 42.19 41.42 40.43 35.53 31.60 36.28 35.99 36.74 40.54 43.06 45.41 47.49 49.54 52.71 56.08
53.50 53.81 52.60 53.10 50.07 51.51 54.40 53.29 42.56 37.66 46.93 42.97 43.28 45.65 43.99 43.65 45.58 44.90 42.74 40.35 39.08 37.36 35.74 39.77 40.14 42.13 42.68 38.17 40.01 37.83 35.08 29.22 30.15 32.02 31.09 37.68 37.57 37.02 44.64 45.67 46.64 46.38 48.25 51.91 54.56
52.01 51.55 50.66 53.11 49.86 53.39 53.70 47.90 36.23 42.84 40.61 44.53 44.71 45.33 41.76 43.10 42.39 43.76 42.31 37.63 41.08 39.44 33.90 31.75 31.76 39.48 41.86 37.73 34.37 34.64 35.49 29.08 21.93 26.77 28.59 37.49 36.60 38.50 44.94 45.67 46.32 48.15 49.34 51.81 53.02
50.60 47.59 49.05 52.38 52.16 52.20 48.98 39.37 38.14 41.39 43.43 42.77 43.50 39.95 39.21 42.11 40.85 40.55 38.36 37.55 39.27 38.19 33.05 31.30 32.62 42.05 41.48 41.49 39.30 36.19 32.54 34.92 31.33 32.25 29.08 31.66 39.76 42.71 44.10 44.03 45.66 47.17 49.37 49.70 51.76
48.79 51.19 52.60 54.16 54.13 51.04 44.70 41.73 40.96 45.97 46.31 44.40 37.66 40.41 35.38 37.89 37.93 36.53 37.54 40.72 40.53 41.83 38.48 37.04 29.46 38.81 41.48 43.33 42.98 38.94 40.39 31.23 29.80 25.84 25.68 30.99 36.36 35.02 39.57 41.41 43.87 45.99 47.27 49.36 49.90
51.31 50.34 55.02 54.38 52.65 47.54 40.45 40.95 42.98 47.07 46.98 43.16 40.02 39.07 38.72 37.76 37.76 36.89 37.63 40.14 42.49 41.91 40.70 36.06 31.31 32.58 39.36 36.53 35.23 36.30 33.89 33.26 31.15 31.87 26.51 25.21 29.32 38.93 39.36 40.79 42.66 46.03 47.53 49.83 48.53
49.18 44.87 54.65 51.25 44.76 40.62 39.73 43.78 46.14 44.95 46.52 45.95 43.49 42.09 39.58 39.68 38.44 38.60 38.28 40.71 44.20 43.66 37.55 37.47 32.20 28.44 34.53 40.30 43.04 39.86 35.76 33.84 27.60 26.76 28.97 28.44 28.48 40.87 39.92 40.81 42.43 45.72 47.36 48.91 48.24
44.11 46.69 54.55 50.30 40.52 39.36 41.75 43.85 45.05 44.58 43.18 43.41 42.75 43.36 42.64 38.82 34.25 40.32 41.09 44.56 44.63 42.52 39.04 38.26 31.79 27.42 28.49 33.07 38.45 36.71 37.91 36.81 34.06 31.60 28.63 26.87 27.83 41.09 41.40 40.93 42.52 44.45 46.30 48.43 47.79
47.90 45.01 43.97 44.10 41.96 40.79 40.09 40.79 41.13 45.81 44.91 44.68 43.29 43.87 40.26 37.79 39.22 37.70 40.04 44.71 45.13 44.65 50.05 44.07 33.96 31.36 25.55 30.08 35.02 32.95 35.18 36.11 33.36 27.63 28.72 30.60 33.04 36.40 38.27 38.52 40.34 42.80 46.41 46.23 46.34
44.21 41.80 41.95 39.33 41.22 40.71 39.22 41.79 41.30 41.32 44.65 44.02 41.52 42.43 39.24 34.14 36.05 36.70 39.48 40.61 44.30 50.54 42.84 39.86 33.82 34.65 35.39 37.63 38.01 36.76 35.25 35.94 34.16 33.49 29.92 31.55 33.28 35.89 38.26 38.51 39.34 42.50 46.94 46.32 45.60
43.45 42.25 43.64 41.45 41.88 41.24 39.64 38.43 41.37 42.61 41.79 41.68 40.30 41.95 39.79 36.11 38.17 36.80 38.48 36.19 37.22 40.69 39.26 36.93 32.15 33.74 33.24 38.47 38.34 35.06 36.50 35.83 35.12 35.40 34.13 33.90 32.48 39.05 40.04 39.81 40.36 40.93 45.18 45.03 45.87
42.51 44.30 43.74 41.04 41.63 40.38 39.40 42.03 43.73 42.85 42.95 45.26 43.04 40.04 38.90 41.76 43.34 42.18 40.70 39.25 38.94 38.59 37.11 36.28 33.23 30.75 28.63 35.10 35.69 30.78 34.23 34.54 33.57 35.21 34.20 29.21 32.76 36.49 38.33 39.63 39.82 39.28 40.93 43.51 45.95
MSLP
1016.64 1016.39 1016.05 1015.74 1015.56 1015.38 1015.26 1014.96 1014.60 1014.19 1013.77 1013.51 1013.33 1013.07 1012.84 1012.53 1011.93 1011.58 1010.36 1007.24 1007.21 1007.11 1007.35 1007.83 1008.20 1008.31 1008.60 1009.04 1009.18 1009.60 1010.75 1011.26 1010.85 1010.06 1009.31 1008.90 1008.81 1008.96 1009.11 1009.63 1010.39 1010.94 1011.53 1011.03 1012.85
1016.46 1016.26 1015.83 1015.50 1015.34 1015.26 1015.11 1014.81 1014.29 1014.08 1013.69 1013.28 1013.17 1012.98 1012.69 1012.40 1011.82 1010.18 1006.48 1006.49 1006.70 1006.99 1007.40 1007.78 1008.07 1008.24 1008.86 1009.03 1009.18 1009.54 1010.34 1010.49 1009.79 1009.20 1008.81 1008.68 1008.67 1008.83 1009.22 1009.88 1010.84 1010.93 1011.07 1010.89 1012.61
1016.28 1016.01 1015.64 1015.34 1015.11 1014.98 1014.81 1014.46 1014.12 1013.89 1013.44 1013.16 1013.05 1012.84 1012.46 1012.30 1011.17 1007.30 1005.65 1006.05 1006.53 1006.83 1007.11 1007.39 1007.67 1008.02 1008.65 1008.86 1008.97 1009.18 1009.35 1009.19 1008.52 1008.10 1008.12 1008.09 1008.34 1008.40 1008.82 1009.42 1009.22 1009.46 1009.71 1009.55 1010.17
1015.93 1015.72 1015.24 1014.98 1014.85 1014.65 1014.49 1014.22 1013.90 1013.61 1013.22 1013.02 1012.89 1012.62 1012.12 1012.03 1009.71 1006.07 1005.77 1005.71 1006.42 1006.86 1007.31 1007.39 1007.68 1008.06 1008.49 1008.68 1008.38 1008.61 1008.23 1008.24 1007.51 1007.20 1007.86 1008.00 1008.05 1008.34 1008.07 1007.15 1007.14 1007.70 1008.10 1007.68 1007.47
1015.57 1015.26 1014.92 1014.73 1014.56 1014.31 1014.18 1013.95 1013.66 1013.30 1013.05 1012.91 1012.71 1012.40 1011.94 1010.98 1008.33 1005.83 1006.01 1006.12 1006.65 1007.05 1007.26 1007.51 1007.66 1007.94 1008.14 1008.22 1008.11 1008.14 1007.58 1007.23 1006.76 1006.73 1007.00 1007.33 1007.56 1007.66 1007.37 1007.11 1007.28 1008.05 1007.74 1007.52 1007.61
1015.15 1014.87 1014.72 1014.45 1014.28 1013.99 1013.78 1013.62 1013.38 1013.12 1012.87 1012.81 1012.60 1012.29 1011.82 1009.83 1006.12 1005.67 1006.10 1006.38 1006.54 1006.79 1007.00 1007.15 1007.19 1007.25 1007.45 1007.55 1007.68 1007.10 1006.92 1006.63 1006.28 1006.01 1006.52 1006.87 1007.70 1007.86 1006.92 1007.04 1007.44 1007.72 1007.91 1007.59 1007.51
1014.77 1014.63 1014.45 1014.23 1013.80 1013.59 1013.42 1013.28 1013.01 1012.83 1012.64 1012.59 1012.49 1011.94 1011.24 1007.80 1005.77 1005.79 1006.03 1006.02 1006.08 1006.30 1006.44 1006.40 1006.49 1006.86 1007.04 1007.07 1006.74 1006.65 1006.78 1006.31 1005.87 1005.58 1006.20 1006.71 1008.50 1007.63 1006.42 1006.86 1007.37 1007.49 1007.76 1007.99 1008.00
1014.51 1014.41 1014.06 1013.71 1013.50 1013.45 1013.11 1012.70 1012.60 1012.49 1012.41 1012.35 1012.18 1011.70 1009.50 1005.98 1005.72 1005.83 1005.88 1005.59 1005.49 1005.77 1005.78 1005.68 1006.18 1006.57 1006.91 1006.65 1006.59 1006.78 1006.87 1006.41 1005.38 1005.04 1005.41 1005.90 1007.16 1006.29 1006.63 1007.06 1007.18 1007.19 1007.37 1007.80 1007.59
1014.29 1013.96 1013.69 1013.55 1013.51 1013.08 1012.56 1012.32 1012.14 1012.18 1012.14 1012.21 1012.08 1011.11 1007.91 1005.47 1005.59 1004.35 1004.97 1005.19 1004.87 1005.10 1005.40 1005.50 1006.14 1006.76 1007.01 1007.37 1007.56 1007.68 1007.44 1006.64 1005.46 1004.71 1005.19 1005.78 1006.30 1006.41 1006.79 1007.06 1006.81 1007.13 1007.41 1007.38 1007.25
1013.96 1013.70 1013.60 1013.50 1013.12 1012.60 1012.26 1011.96 1011.87 1012.03 1012.03 1011.98 1011.31 1010.47 1007.07 1005.36 1004.53 1004.08 1004.30 1004.55 1004.82 1005.09 1005.35 1005.66 1006.59 1007.24 1007.90 1008.27 1008.49 1008.14 1007.91 1007.19 1006.51 1005.84 1005.86 1006.07 1006.26 1006.53 1006.79 1007.44 1006.79 1006.85 1007.19 1007.70 1006.93
1013.78 1013.61 1013.41 1013.09 1012.66 1012.56 1012.23 1012.04 1011.96 1011.62 1011.04 1009.49 1008.72 1008.01 1006.31 1004.75 1004.03 1003.91 1003.82 1004.33 1004.75 1005.39 1005.99 1006.40 1007.37 1008.11 1007.98 1008.25 1008.07 1008.02 1007.96 1007.95 1006.73 1005.74 1006.22 1005.87 1006.50 1007.14 1007.20 1008.07 1008.19 1007.81 1008.65 1007.95 1006.93
1013.60 1013.24 1012.92 1012.62 1012.50 1012.59 1012.64 1011.63 1010.07 1009.54 1008.80 1007.43 1007.15 1006.79 1005.69 1005.21 1004.85 1003.85 1003.74 1004.53 1005.06 1005.68 1006.28 1007.45 1008.35 1008.30 1007.69 1007.68 1007.82 1008.26 1008.48 1008.24 1006.95 1005.89 1006.36 1006.61 1009.20 1009.66 1010.06 1010.27 1010.38 1010.36 1009.51 1009.40 1009.39
1013.34 1012.95 1012.62 1012.48 1012.43 1012.52 1011.83 1010.11 1009.09 1008.78 1008.87 1006.77 1005.94 1005.37 1004.58 1005.00 1004.56 1003.92 1003.93 1004.58 1005.16 1006.06 1007.18 1008.04 1008.77 1008.45 1007.88 1007.96 1008.22 1008.37 1008.62 1008.57 1008.35 1006.84 1006.98 1007.66 1009.81 1010.78 1011.17 1011.32 1011.33 1011.78 1011.63 1010.97 1010.54
1013.10 1012.79 1012.47 1012.32 1012.91 1011.82 1010.61 1009.10 1008.68 1008.40 1008.67 1006.71 1005.22 1004.13 1003.95 1004.28 1004.70 1004.18 1004.28 1004.67 1005.52 1006.50 1007.61 1008.62 1009.04 1008.84 1008.61 1008.71 1008.81 1008.62 1008.51 1008.53 1008.37 1008.41 1008.99 1008.98 1011.10 1012.31 1012.25 1012.34 1012.53 1012.86 1012.77 1012.30 1011.44
1012.90 1012.63 1012.39 1011.92 1011.82 1011.05 1009.42 1008.80 1008.52 1008.65 1008.40 1006.60 1005.09 1004.04 1004.13 1004.72 1005.09 1005.43 1005.34 1005.33 1006.60 1007.24 1007.87 1009.48 1009.54 1009.26 1009.09 1009.52 1009.16 1008.92 1008.64 1008.75 1008.75 1009.09 1009.81 1010.82 1011.99 1013.47 1013.33 1013.08 1013.11 1013.04 1012.73 1012.09 1011.51
1012.42 1012.21 1012.00 1012.02 1011.73 1009.56 1008.87 1008.56 1008.55 1009.30 1008.41 1006.92 1006.18 1005.85 1005.45 1006.18 1006.45 1006.63 1006.66 1006.37 1007.51 1008.37 1009.19 1010.08 1009.93 1009.95 1010.25 1009.79 1009.59 1009.30 1009.09 1009.17 1009.55 1010.34 1011.36 1012.61 1013.00 1014.09 1014.47 1014.94 1014.47 1013.96 1013.31 1012.47 1011.21
1012.19 1011.99 1011.91 1011.21 1010.02 1009.02 1008.67 1008.89 1009.57 1009.31 1008.73 1008.31 1007.71 1007.36 1007.33 1007.96 1008.31 1008.48 1009.00 1009.27 1009.74 1010.10 1011.10 1011.28 1011.10 1010.78 1010.68 1010.60 1010.37 1010.59 1010.78 1011.26 1011.45 1011.95 1013.01 1013.41 1013.88 1015.13 1014.92 1015.02 1015.02 1014.76 1013.82 1013.02 1012.16
1011.67 1011.57 1010.97 1009.92 1009.30 1008.85 1009.17 1009.72 1010.04 1009.74 1009.35 1008.88 1008.68 1008.60 1008.82 1009.20 1009.66 1009.74 1010.14 1010.94 1011.15 1011.58 1012.79 1013.11 1012.33 1012.10 1012.03 1012.12 1012.23 1012.27 1012.85 1014.00 1014.62 1014.85 1014.78 1014.11 1014.86 1015.40 1015.34 1015.25 1015.14 1015.05 1014.74 1013.67 1012.73
1010.89 1011.09 1010.75 1008.56 1008.91 1009.51 1009.93 1010.54 1010.41 1009.90 1009.58 1009.50 1009.57 1009.89 1010.19 1010.12 1010.39 1010.85 1011.31 1011.84 1012.16 1012.26 1013.29 1013.94 1013.66 1012.96 1012.62 1012.68 1012.77 1013.22 1013.98 1014.53 1015.29 1016.04 1016.13 1015.83 1016.09 1015.87 1015.38 1015.33 1015.42 1015.31 1015.16 1014.49 1013.97
1011.20 1010.83 1009.56 1008.29 1008.57 1009.13 1010.21 1010.58 1010.15 1009.58 1009.40 1009.64 1010.26 1010.73 1011.19 1011.22 1011.24 1011.40 1011.60 1011.99 1012.47 1012.75 1013.08 1014.38 1014.64 1014.10 1013.57 1013.33 1013.51 1014.03 1014.69 1015.35 1016.42 1017.26 1017.48 1016.96 1016.87 1016.55 1016.18 1015.93 1015.59 1015.42 1015.60 1015.25 1014.98
1011.29 1010.67 1008.84 1008.38 1008.71 1009.89 1010.68 1010.49 1009.91 1009.56 1009.28 1009.83 1010.32 1010.93 1011.44 1011.66 1011.72 1011.72 1011.92 1012.18 1012.30 1013.17 1013.56 1014.57 1015.32 1015.25 1014.65 1014.92 1014.86 1014.97 1015.51 1016.42 1017.40 1017.98 1018.26 1018.31 1017.51 1017.00 1017.35 1017.45 1016.86 1016.32 1016.27 1016.02 1016.07
1011.59 1011.09 1009.14 1008.61 1009.56 1010.79 1010.66 1009.78 1009.60 1009.57 1009.50 1009.84 1010.27 1010.81 1011.36 1011.72 1011.88 1011.97 1012.17 1012.15 1012.34 1013.01 1014.10 1014.93 1016.01 1016.55 1016.02 1015.42 1015.24 1015.52 1016.32 1017.21 1018.14 1018.65 1018.84 1018.78 1018.25 1018.13 1018.19 1018.08 1017.67 1017.05 1016.40 1016.57 1016.68
1012.35 1011.31 1008.58 1008.53 1010.17 1011.05 1010.31 1009.76 1009.48 1009.58 1009.60 1009.91 1010.37 1010.74 1011.28 1011.82 1012.19 1012.22 1012.34 1012.39 1012.53 1013.22 1013.91 1014.78 1016.31 1017.06 1016.64 1016.38 1015.87 1016.10 1016.71 1017.31 1018.01 1018.78 1019.15 1019.55 1018.47 1018.19 1018.40 1018.24 1017.90 1017.45 1016.91 1016.51 1016.82
1012.91 1012.43 1011.04 1010.50 1011.19 1011.00 1010.62 1010.12 1009.78 1009.48 1009.68 1009.87 1010.34 1010.77 1011.45 1011.98 1012.20 1012.48 1012.63 1012.69 1012.83 1013.26 1013.90 1014.66 1016.54 1017.13 1017.21 1016.54 1016.27 1016.56 1016.78 1017.23 1018.13 1019.23 1019.22 1018.99 1018.57 1018.28 1018.35 1018.35 1018.12 1017.70 1017.33 1017.06 1016.97
1013.73 1014.24 1013.75 1012.87 1012.12 1011.65 1011.00 1010.44 1010.06 1009.97 1009.86 1010.14 1010.60 1010.92 1011.59 1012.38 1012.66 1012.82 1012.96 1013.17 1013.34 1013.75 1014.36 1015.27 1016.57 1016.93 1016.87 1016.58 1016.42 1016.44 1016.94 1017.51 1018.13 1018.41 1019.22 1018.63 1018.53 1018.26 1018.28 1018.30 1018.09 1017.85 1017.49 1017.41 1017.41
1015.33 1015.31 1014.33 1013.77 1013.00 1012.17 1011.49 1010.71 1010.31 1010.01 1010.07 1010.33 1010.72 1011.00 1011.48 1012.31 1012.56 1012.92 1013.25 1013.65 1013.79 1014.29 1014.87 1015.77 1016.54 1016.98 1016.95 1016.30 1016.25 1016.54 1016.82 1017.26 1017.62 1017.97 1018.39 1018.52 1018.35 1017.61 1017.77 1017.99 1018.01 1017.79 1017.59 1017.48 1017.46
1015.94 1015.58 1015.29 1014.43 1013.69 1012.92 1012.23 1011.54 1010.51 1009.98 1009.98 1009.91 1010.31 1011.10 1011.65 1011.69 1011.93 1012.24 1012.68 1013.06 1013.44 1014.33 1015.22 1016.04 1016.75 1017.67 1017.59 1017.01 1016.89 1016.95 1016.20 1016.67 1016.86 1017.12 1017.61 1018.06 1017.45 1017.35 1017.74 1017.82 1017.71 1017.59 1017.61 1017.51 1017.36
Wind_Speed
14 14 13 12 12 13 14 13 14 14 13 14 14 15 15 16 14 2 8 10 7 6 7 4 2 3 4 1 3 4 3 3 5 6 4 2 4 3 1 4 7 6 3 3 5
14 14 13 12 12 11 12 13 12 14 13 14 14 14 15 14 4 7 12 7 11 11 6 6 3 4 3 4 2 5 5 9 8 6 5 7 7 8 5 7 5 5 12 20 6
13 13 12 12 12 11 12 12 12 13 13 13 14 14 15 9 5 7 1 12 12 9 3 2 4 3 2 3 4 4 5 7 8 10 9 7 5 8 10 8 12 18 14 18 13
13 14 13 12 12 12 12 12 12 13 12 12 14 14 16 3 1 2 5 9 10 7 2 3 3 4 3 5 4 3 8 7 9 6 6 6 6 6 12 8 13 22 24 18 24
13 14 13 13 13 12 12 12 12 12 11 11 12 13 5 4 10 3 6 10 7 6 5 5 4 5 3 3 1 5 6 4 12 11 6 11 10 8 16 3 7 9 14 16 22
13 13 13 13 13 12 11 11 10 11 10 11 11 11 3 4 4 2 7 5 5 5 5 7 7 8 3 4 5 7 6 8 7 9 5 9 2 4 8 8 11 10 11 13 22
12 12 13 13 13 13 13 12 10 10 10 9 9 4 1 15 2 3 7 5 5 5 5 6 6 4 2 5 5 3 4 5 5 2 2 14 3 10 8 15 16 16 16 19 24
12 12 12 13 13 14 14 12 11 11 10 9 6 2 9 5 2 5 4 7 7 7 4 2 5 3 4 4 8 3 4 3 4 4 8 7 8 17 9 15 18 20 16 17 24
12 12 12 13 13 14 13 13 14 12 8 5 3 1 11 6 2 6 8 7 3 4 4 3 2 1 6 3 6 7 3 4 8 5 2 3 8 6 13 17 19 17 18 16 16
12 11 11 12 12 11 14 14 2 1 2 4 5 2 5 5 4 3 6 4 4 3 3 3 6 3 5 6 4 4 3 4 6 4 5 4 7 5 19 17 20 19 18 14 20
11 10 10 10 9 9 8 2 4 2 3 7 5 4 8 6 4 3 3 5 2 6 1 3 7 6 12 5 5 3 3 4 12 12 5 9 6 10 16 14 15 12 5 9 14
10 9 9 8 8 5 2 2 3 0 9 9 5 6 6 2 4 5 4 3 2 2 2 8 6 7 4 8 4 6 3 5 10 8 6 4 18 23 17 10 2 12 16 9 8
9 9 9 8 5 2 2 6 1 2 2 8 5 5 5 9 4 5 8 2 3 1 5 7 4 6 9 12 8 3 5 6 7 8 4 3 7 13 10 17 16 15 12 15 12
10 9 9 8 3 3 5 4 5 3 5 7 4 3 1 3 4 4 2 4 2 2 7 9 6 4 12 7 5 3 3 7 9 2 1 5 4 6 9 13 14 11 10 11 13
10 8 6 5 2 0 3 7 5 5 4 7 7 4 7 5 1 11 5 7 5 5 7 2 3 13 11 8 4 6 11 7 3 2 6 12 7 5 6 11 17 16 13 10 11
14 10 5 0 0 7 8 6 4 6 1 7 5 6 9 8 8 5 9 8 3 7 7 4 5 5 4 8 5 10 4 1 4 2 5 5 4 5 4 6 12 15 14 14 14
14 10 4 2 4 2 5 5 6 5 4 7 5 5 5 7 6 8 7 10 5 6 8 7 3 6 7 8 9 11 8 6 7 6 3 4 6 1 7 5 5 10 17 15 15
16 6 6 6 3 4 4 6 5 1 2 4 4 3 6 6 6 7 3 5 8 6 4 5 9 7 9 3 4 5 4 5 2 3 5 7 3 1 3 4 6 3 8 14 16
11 1 3 5 7 2 6 6 5 3 2 4 3 6 6 6 4 4 3 3 2 3 6 3 4 6 4 4 3 7 5 2 3 2 3 2 4 8 9 7 9 10 10 14 12
2 3 4 3 7 5 6 3 3 2 1 4 2 2 1 5 6 5 1 1 3 4 3 3 2 1 6 7 6 5 3 5 5 3 4 4 1 5 11 14 15 14 12 14 11
3 4 4 4 3 6 4 6 3 1 3 3 3 2 1 1 1 4 2 3 3 2 5 4 3 7 2 3 1 6 5 4 3 4 3 2 6 1 4 6 11 12 12 9 9
2 2 3 1 5 1 4 7 5 4 3 2 4 3 2 1 2 3 2 2 2 6 2 1 5 1 5 2 3 4 2 2 5 6 2 1 4 5 4 6 7 10 9 8 7
2 3 2 5 3 2 4 2 4 3 3 3 3 3 3 3 1 1 3 3 4 5 8 6 1 3 9 6 4 4 2 1 2 3 3 3 6 4 3 5 7 8 8 7 7
3 4 6 6 1 4 2 2 2 2 3 3 5 3 3 2 2 2 2 1 2 2 7 7 3 7 7 7 3 2 1 1 4 3 2 5 5 3 4 5 6 7 5 3 4
5 1 2 4 5 4 1 2 4 4 3 4 1 4 6 4 1 3 1 1 2 5 3 6 5 5 6 7 4 4 4 5 5 4 5 5 5 5 6 5 5 5 4 2 1
3 4 5 3 4 4 3 3 7 4 8 6 5 7 6 7 9 8 6 4 5 3 4 1 3 4 4 6 7 5 6 7 5 4 6 5 8 7 5 4 6 4 4 3 4
3 1 4 4 4 2 2 3 8 6 4 6 7 6 5 8 9 9 8 5 6 9 6 5 6 3 5 3 3 6 9 9 4 5 6 5 9 3 6 7 6 5 4 6 5
Wind_Direction
311 310 311 315 314 313 314 313 318 318 320 320 320 318 315 310 312 152 246 222 186 125 135 106 80 200 94 168 181 121 86 183 203 164 225 236 170 14 182 87 70 117 128 125 353
305 302 309 312 308 303 302 306 316 315 315 320 318 315 310 314 283 239 251 197 198 152 116 143 122 144 108 171 243 131 134 203 195 190 224 202 191 155 135 145 119 122 102 116 96
302 302 302 302 302 303 301 305 311 311 315 317 314 310 304 313 298 251 121 205 199 174 118 120 131 155 162 185 195 173 192 208 247 207 181 222 188 172 159 198 183 175 163 151 167
303 300 304 305 303 303 300 302 307 308 312 312 307 305 307 243 294 284 56 131 169 150 155 148 116 123 165 207 215 173 229 184 263 233 171 200 138 186 189 223 178 183 168 169 175
298 300 304 302 303 301 296 299 301 306 309 303 298 304 304 337 253 282 94 114 119 124 167 168 142 142 195 209 197 184 256 248 245 262 217 149 192 205 224 188 186 171 172 188 175
296 300 300 300 300 300 294 291 288 292 297 290 293 303 268 301 248 263 147 127 148 153 172 153 187 195 220 225 155 205 225 263 268 249 188 141 208 133 240 170 198 181 200 197 192
301 299 299 297 305 302 292 283 283 284 287 282 284 286 198 238 219 64 168 200 175 190 174 215 178 164 168 283 228 233 270 293 235 215 167 109 357 233 235 179 190 201 202 216 211
301 296 301 306 304 292 289 287 282 282 276 272 265 244 250 240 305 281 194 293 217 216 245 198 168 161 159 273 354 317 57 31 258 301 167 131 244 236 177 180 201 198 204 218 216
302 301 303 300 292 293 294 291 286 275 248 229 248 199 275 318 229 249 152 220 169 204 204 243 141 163 22 59 358 5 255 266 315 211 349 175 270 248 187 194 198 199 201 218 216
304 299 292 287 295 303 306 299 293 163 203 205 254 310 283 304 274 231 193 199 253 340 36 68 48 24 29 64 264 274 330 313 273 349 13 304 275 215 192 204 211 211 214 215 220
300 288 284 290 300 315 344 8 6 346 206 219 208 252 279 274 284 259 188 118 130 62 61 352 54 295 284 238 244 250 244 320 298 285 276 271 274 211 201 223 239 242 259 249 217
296 288 286 291 295 317 308 250 235 74 314 224 238 249 270 16 306 275 118 134 148 235 112 27 31 349 90 27 10 46 27 326 291 290 167 6 38 54 41 340 29 19 347 329 320
303 298 293 291 311 291 232 235 242 359 6 297 200 219 215 145 229 268 134 140 208 345 65 97 344 358 41 29 21 22 35 309 258 309 47 62 66 24 30 39 42 26 359 360 334
317 307 302 297 311 279 270 285 4 152 51 294 327 346 267 171 48 42 7 145 66 4 134 87 335 2 39 26 3 307 302 273 292 345 25 343 178 21 349 26 29 14 359 345 339
318 307 303 359 266 277 270 306 290 61 60 319 335 326 360 67 257 341 341 36 86 32 84 119 55 31 43 324 325 259 308 264 259 246 97 344 75 295 346 357 360 355 349 341 343
323 318 323 152 325 243 299 311 64 46 358 334 7 353 43 23 11 330 11 32 111 64 41 55 356 51 297 296 319 307 328 33 65 41 75 278 125 315 10 345 325 336 344 343 351
317 303 267 312 239 311 304 41 46 100 329 334 341 2 70 15 37 25 46 38 44 33 18 340 12 336 10 359 345 13 17 350 356 15 217 272 60 267 317 344 316 333 333 346 354
314 277 230 229 283 32 50 56 80 59 335 353 2 355 52 18 8 4 47 42 12 58 65 50 346 13 334 11 284 332 81 121 289 320 302 316 134 175 337 328 345 333 327 358 1
320 207 270 258 197 138 73 58 183 225 257 338 15 44 354 347 84 71 54 105 35 37 106 61 301 327 7 347 41 317 17 250 118 22 49 290 60 230 7 345 1 15 3 9 1
6 5 268 119 152 72 75 203 174 175 130 72 94 56 90 327 28 31 117 65 97 2 119 191 342 297 304 35 7 82 280 19 8 355 326 323 159 268 340 338 342 357 360 4 2
35 22 280 164 79 53 153 209 134 345 152 123 168 111 121 358 318 350 51 24 96 62 59 115 98 297 40 38 291 357 13 25 114 146 181 275 265 187 329 335 330 340 350 16 2
66 10 234 148 53 32 152 173 149 176 76 75 99 117 144 77 348 40 76 43 66 150 110 150 133 270 249 268 270 127 102 81 112 299 281 195 284 42 56 342 325 343 350 34 33
87 259 316 109 138 289 282 120 152 143 166 133 146 147 186 162 46 66 144 323 173 151 176 184 44 27 346 356 341 69 83 207 136 79 213 140 258 82 35 346 338 323 347 12 26
52 8 327 41 77 133 132 224 166 129 152 150 172 125 119 157 212 214 164 317 293 130 101 91 139 158 192 222 179 236 168 74 122 134 263 242 291 328 308 314 324 325 325 0 78
27 324 183 314 329 339 73 235 174 187 184 160 148 170 161 192 244 239 188 320 12 145 86 120 194 178 229 236 232 205 194 196 200 182 167 254 258 241 232 266 281 297 186 209 244
56 24 353 292 308 328 16 267 194 209 154 224 176 185 162 168 188 205 174 206 204 202 163 68 246 149 285 246 190 202 212 220 211 185 256 265 284 210 204 242 274 297 304 268 192
320 356 103 288 339 46 237 291 276 167 224 188 183 137 172 218 192 204 196 193 188 167 189 161 148 110 256 6 114 304 217 205 204 201 168 213 232 217 213 231 251 270 301 283 207